Location: Bremen
(53.0793°N, 8.8017°E)
Time: 17:45:25
(UTC+02:00)

Tiros 1 - Pass Details

Date: 26 April 2024
Orbit: 624 x 657 km, 48.4° (Epoch: 17 May)

Event Time Altitude Azimuth Distance (km) Brightness Sun altitude
Rises 04:30:24 0° 275° (W) 2,924 - -12.1°
Reaches altitude 10° 04:33:04 10° 262° (W) 2,008 - -11.8°
Exits shadow 04:33:54 14° 254° (WSW) 1,763 8.9 -11.7°
Maximum altitude 04:36:45 24° 209° (SSW) 1,307 8.2 -11.4°
Drops below altitude 10° 04:40:25 10° 155° (SSE) 1,992 9.5 -11.0°
Sets 04:43:03 0° 142° (SE) 2,894 10.5 -10.7°
